| time (UTC) | temp F | wind direction | speed knots | gust knots | rain 1hr in | rain 24hr in | rain mn in | humidity % | barometer mb |
| 20260510160010 | 73 | 128 | 0.0 | 4.3 | 0.00 | 0.00 | 0.00 | 49 | 1017.9 |
| 20260510154010 | 71 | 140 | 1.7 | 2.6 | 0.00 | 0.00 | 0.00 | 51 | 1017.7 |
| 20260510152011 | 68 | 133 | 0.0 | 5.2 | 0.00 | 0.00 | 0.00 | 61 | 1017.7 |
| 20260510151009 | 66 | 128 | 1.7 | 5.2 | 0.00 | 0.00 | 0.00 | 68 | 1017.5 |
| 20260510150010 | 64 | 148 | 0.0 | 4.3 | 0.00 | 0.00 | 0.00 | 74 | 1017.4 |
| 20260510145009 | 62 | 123 | 0.0 | 5.2 | 0.00 | 0.00 | 0.00 | 78 | 1017.4 |
| 20260510144010 | 60 | 129 | 0.0 | 5.2 | 0.00 | 0.00 | 0.00 | 83 | 1017.3 |
| 20260510143010 | 59 | 141 | 2.6 | 5.2 | 0.00 | 0.00 | 0.00 | 91 | 1017.3 |
| 20260510142009 | 58 | 138 | 2.6 | 6.1 | 0.00 | 0.00 | 0.00 | 100 | 1017.2 |
| 20260510141010 | 57 | 145 | 1.7 | 4.3 | 0.00 | 0.00 | 0.00 | 100 | 1017.1 |
| 20260510140010 | 56 | 151 | 0.0 | 5.2 | 0.00 | 0.00 | 0.00 | 100 | 1016.9 |
| 20260510135009 | 55 | 58 | 0.0 | 0.0 | 0.00 | 0.00 | 0.00 | 100 | 1016.8 |
| 20260510134009 | 55 | 58 | 0.0 | 0.0 | 0.00 | 0.00 | 0.00 | 100 | 1016.7 |
| 20260510132009 | 55 | 58 | 0.0 | 0.0 | 0.00 | 0.00 | 0.00 | 100 | 1016.7 |
| 20260510131009 | 55 | 58 | 0.0 | 0.0 | 0.00 | 0.00 | 0.00 | 100 | 1016.6 |
| 20260510125010 | 56 | 58 | 0.0 | 0.0 | 0.00 | 0.00 | 0.00 | 100 | 1016.6 |
| 20260510124009 | 56 | 58 | 0.0 | 0.0 | 0.00 | 0.00 | 0.00 | 100 | 1016.6 |
| 20260510123009 | 56 | 58 | 0.0 | 0.0 | 0.00 | 0.00 | 0.00 | 100 | 1016.6 |
| 20260510122009 | 56 | 58 | 0.0 | 0.0 | 0.00 | 0.00 | 0.00 | 100 | 1016.6 |
| 20260510121009 | 56 | 58 | 0.0 | 0.0 | 0.00 | 0.00 | 0.00 | 100 | 1016.6 |
| 20260510115012 | 56 | 58 | 0.0 | 0.0 | 0.00 | 0.00 | 0.00 | 100 | 1016.4 |
| 20260510114009 | 56 | 58 | 0.0 | 0.0 | 0.00 | 0.00 | 0.00 | 100 | 1016.4 |
| 20260510113009 | 56 | 58 | 0.0 | 0.0 | 0.00 | 0.00 | 0.00 | 100 | 1016.6 |
| 20260510112010 | 56 | 58 | 0.0 | 0.0 | 0.00 | 0.00 | 0.00 | 100 | 1016.6 |
| 20260510111010 | 56 | 58 | 0.0 | 0.0 | 0.00 | 0.00 | 0.00 | 100 | 1016.6 |
| 20260510110010 | 56 | 58 | 0.0 | 0.0 | 0.00 | 0.00 | 0.00 | 100 | 1016.6 |
| 20260510105010 | 56 | 58 | 0.0 | 0.0 | 0.00 | 0.00 | 0.00 | 100 | 1016.7 |
| 20260510104010 | 56 | 58 | 0.0 | 0.0 | 0.00 | 0.00 | 0.00 | 100 | 1016.7 |
| 20260510102010 | 56 | 58 | 0.0 | 0.0 | 0.00 | 0.00 | 0.00 | 100 | 1016.8 |
| 20260510101010 | 56 | 58 | 0.0 | 0.0 | 0.00 | 0.00 | 0.00 | 100 | 1016.8 |
| 20260510100010 | 57 | 58 | 0.0 | 0.0 | 0.00 | 0.00 | 0.00 | 100 | 1016.8 |
| 20260510094009 | 57 | 58 | 0.0 | 0.0 | 0.00 | 0.00 | 0.00 | 99 | 1016.9 |
| 20260510091010 | 57 | 58 | 0.0 | 0.0 | 0.00 | 0.00 | 0.00 | 96 | 1016.9 |
| 20260510090009 | 57 | 58 | 0.0 | 0.0 | 0.00 | 0.00 | 0.00 | 96 | 1016.9 |
| 20260510085010 | 58 | 58 | 0.0 | 0.0 | 0.00 | 0.00 | 0.00 | 95 | 1016.9 |
| 20260510084010 | 58 | 58 | 0.0 | 0.0 | 0.00 | 0.00 | 0.00 | 95 | 1017.0 |
| 20260510083010 | 58 | 58 | 0.0 | 0.0 | 0.00 | 0.00 | 0.00 | 94 | 1017.0 |
| 20260510082010 | 58 | 58 | 0.0 | 0.0 | 0.00 | 0.00 | 0.00 | 94 | 1017.0 |
| 20260510080010 | 59 | 58 | 0.0 | 0.0 | 0.00 | 0.00 | 0.00 | 94 | 1017.0 |
| 20260510075010 | 59 | 58 | 0.0 | 0.0 | 0.00 | 0.00 | 0.00 | 94 | 1017.0 |
| 20260510074009 | 59 | 58 | 0.0 | 0.0 | 0.00 | 0.00 | 0.00 | 94 | 1017.0 |
| 20260510073009 | 59 | 58 | 0.0 | 0.0 | 0.00 | 0.00 | 0.00 | 93 | 1017.0 |
| 20260510072009 | 59 | 58 | 0.0 | 0.0 | 0.00 | 0.00 | 0.00 | 93 | 1017.1 |
| 20260510071010 | 59 | 58 | 0.0 | 0.0 | 0.00 | 0.00 | 0.00 | 92 | 1017.1 |
| 20260510070010 | 59 | 58 | 0.0 | 0.0 | 0.00 | 0.00 | 0.00 | 92 | 1017.1 |
| 20260510065010 | 60 | 58 | 0.0 | 0.0 | 0.00 | 0.00 | 0.00 | 91 | 1017.1 |
| 20260510063009 | 60 | 58 | 0.0 | 2.6 | 0.00 | 0.00 | 0.00 | 90 | 1017.0 |
| 20260510062009 | 60 | 82 | 0.0 | 0.0 | 0.00 | 0.00 | 0.00 | 89 | 1017.1 |
| 20260510061009 | 60 | 82 | 0.0 | 0.0 | 0.00 | 0.00 | 0.00 | 88 | 1017.2 |
| 20260510060010 | 61 | 82 | 0.0 | 0.0 | 0.00 | 0.00 | 0.00 | 86 | 1017.2 |
| 20260510055009 | 61 | 82 | 0.0 | 0.0 | 0.00 | 0.00 | 0.00 | 85 | 1017.3 |
| 20260510054012 | 62 | 82 | 0.0 | 0.0 | 0.00 | 0.00 | 0.00 | 84 | 1017.3 |
| 20260510053010 | 62 | 82 | 0.9 | 2.6 | 0.00 | 0.00 | 0.00 | 83 | 1017.3 |
| 20260510052010 | 62 | 357 | 0.0 | 0.0 | 0.00 | 0.00 | 0.00 | 82 | 1017.3 |
| 20260510051009 | 63 | 357 | 0.0 | 0.0 | 0.00 | 0.00 | 0.00 | 80 | 1017.4 |
| 20260510050009 | 64 | 357 | 0.0 | 0.0 | 0.00 | 0.00 | 0.00 | 78 | 1017.4 |
| 20260510045009 | 64 | 357 | 0.0 | 0.0 | 0.00 | 0.00 | 0.00 | 76 | 1017.5 |
| 20260510044009 | 65 | 357 | 0.0 | 0.0 | 0.00 | 0.00 | 0.00 | 74 | 1017.4 |
| 20260510043010 | 66 | 357 | 0.0 | 0.0 | 0.00 | 0.00 | 0.00 | 72 | 1017.4 |
| 20260510042009 | 66 | 357 | 0.0 | 0.0 | 0.00 | 0.00 | 0.00 | 70 | 1017.5 |
| 20260510041010 | 67 | 357 | 0.0 | 0.0 | 0.00 | 0.00 | 0.00 | 68 | 1017.5 |
| 20260510040010 | 68 | 357 | 0.0 | 0.0 | 0.00 | 0.00 | 0.00 | 65 | 1017.5 |
| 20260510035009 | 68 | 357 | 0.0 | 0.0 | 0.00 | 0.00 | 0.00 | 63 | 1017.5 |
| 20260510034009 | 69 | 357 | 0.0 | 0.0 | 0.00 | 0.00 | 0.00 | 61 | 1017.3 |
| 20260510033010 | 70 | 357 | 0.0 | 0.0 | 0.00 | 0.00 | 0.00 | 59 | 1017.2 |
| 20260510032010 | 70 | 357 | 0.0 | 0.0 | 0.00 | 0.00 | 0.00 | 57 | 1017.2 |
| 20260510030009 | 72 | 357 | 0.0 | 0.0 | 0.00 | 0.00 | 0.00 | 53 | 1017.2 |
| 20260510025010 | 73 | 357 | 0.0 | 0.0 | 0.00 | 0.00 | 0.00 | 52 | 1017.2 |
| 20260510024010 | 74 | 357 | 0.0 | 0.0 | 0.00 | 0.00 | 0.00 | 50 | 1016.8 |
| 20260510023009 | 74 | 357 | 0.0 | 0.0 | 0.00 | 0.00 | 0.00 | 48 | 1016.4 |
| 20260510022010 | 75 | 357 | 0.0 | 0.0 | 0.00 | 0.00 | 0.00 | 46 | 1016.0 |
| 20260510021009 | 75 | 357 | 0.0 | 2.6 | 0.00 | 0.00 | 0.00 | 46 | 1017.0 |
| 20260510020009 | 76 | 322 | 0.0 | 5.2 | 0.00 | 0.00 | 0.00 | 46 | 1017.0 |
| 20260510015009 | 76 | 271 | 0.9 | 2.6 | 0.00 | 0.00 | 0.00 | 45 | 1016.9 |
| 20260510014009 | 77 | 6 | 0.0 | 4.3 | 0.00 | 0.00 | 0.00 | 44 | 1016.9 |
| 20260510013010 | 77 | 7 | 0.0 | 4.3 | 0.00 | 0.00 | 0.00 | 44 | 1017.0 |
| 20260510012010 | 78 | 336 | 0.0 | 7.8 | 0.00 | 0.00 | 0.00 | 43 | 1016.9 |
| 20260510011009 | 78 | 286 | 1.7 | 5.2 | 0.00 | 0.00 | 0.00 | 43 | 1016.9 |
| 20260510010009 | 78 | 0 | 1.7 | 7.8 | 0.00 | 0.00 | 0.00 | 42 | 1016.9 |
| 20260510005010 | 79 | 206 | 0.9 | 5.2 | 0.00 | 0.00 | 0.00 | 41 | 1017.0 |
| 20260510004010 | 79 | 17 | 0.9 | 6.1 | 0.00 | 0.00 | 0.00 | 41 | 1016.9 |
| 20260510003009 | 80 | 359 | 0.9 | 7.0 | 0.00 | 0.00 | 0.00 | 40 | 1017.1 |
| 20260510002010 | 81 | 337 | 1.7 | 5.2 | 0.00 | 0.00 | 0.00 | 38 | 1017.0 |
| 20260510000009 | 82 | 319 | 0.0 | 7.0 | 0.00 | 0.00 | 0.00 | 36 | 1017.0 |
| 20260509235009 | 82 | 125 | 0.9 | 7.0 | 0.00 | 0.00 | 0.00 | 36 | 1017.1 |
| 20260509234010 | 82 | 336 | 0.0 | 7.0 | 0.00 | 0.00 | 0.00 | 36 | 1017.2 |
| 20260509233009 | 81 | 301 | 0.0 | 5.2 | 0.00 | 0.00 | 0.00 | 37 | 1017.1 |
| 20260509225009 | 81 | 277 | 0.9 | 7.8 | 0.00 | 0.00 | 0.00 | 39 | 1017.3 |
| 20260509224009 | 81 | 353 | 2.6 | 8.7 | 0.00 | 0.00 | 0.00 | 38 | 1017.4 |
| 20260509223010 | 82 | 331 | 0.9 | 7.0 | 0.00 | 0.00 | 0.00 | 36 | 1017.5 |
| 20260509222010 | 82 | 289 | 0.9 | 7.0 | 0.00 | 0.00 | 0.00 | 37 | 1017.9 |
| 20260509221009 | 81 | 171 | 0.9 | 7.0 | 0.00 | 0.00 | 0.00 | 38 | 1017.8 |
| 20260509220009 | 82 | 8 | 6.1 | 8.7 | 0.00 | 0.00 | 0.00 | 36 | 1017.8 |
| 20260509215009 | 81 | 284 | 0.9 | 6.1 | 0.00 | 0.00 | 0.00 | 35 | 1017.8 |
| 20260509214014 | 81 | 198 | 0.9 | 5.2 | 0.00 | 0.00 | 0.00 | 38 | 1017.9 |
| 20260509213013 | 82 | 354 | 2.6 | 7.0 | 0.00 | 0.00 | 0.00 | 37 | 1018.0 |
| 20260509212019 | 82 | 314 | 1.7 | 5.2 | 0.00 | 0.00 | 0.00 | 35 | 1018.1 |
| 20260509211013 | 82 | 292 | 1.7 | 8.7 | 0.00 | 0.00 | 0.00 | 34 | 1018.0 |
| 20260509210009 | 82 | 207 | 0.9 | 7.0 | 0.00 | 0.00 | 0.00 | 35 | 1018.0 |
| 20260509205009 | 81 | 207 | 0.0 | 7.0 | 0.00 | 0.00 | 0.00 | 36 | 1018.0 |
| 20260509204010 | 80 | 294 | 3.5 | 8.7 | 0.00 | 0.00 | 0.00 | 36 | 1018.0 |
| 20260509203010 | 79 | 339 | 1.7 | 8.7 | 0.00 | 0.00 | 0.00 | 36 | 1018.0 |
| 20260509202010 | 79 | 356 | 1.7 | 7.8 | 0.00 | 0.00 | 0.00 | 38 | 1018.1 |
| 20260509201009 | 79 | 335 | 2.6 | 7.8 | 0.00 | 0.00 | 0.00 | 34 | 1018.1 |
| 20260509195010 | 79 | 1 | 6.1 | 10.4 | 0.00 | 0.00 | 0.00 | 35 | 1018.2 |
| 20260509194009 | 78 | 357 | 3.5 | 8.7 | 0.00 | 0.00 | 0.00 | 37 | 1018.2 |
| 20260509193009 | 78 | 310 | 0.9 | 8.7 | 0.00 | 0.00 | 0.00 | 37 | 1018.3 |
| 20260509192009 | 78 | 1 | 1.7 | 8.7 | 0.00 | 0.00 | 0.00 | 40 | 1018.3 |
| 20260509191009 | 78 | 1 | 4.3 | 8.7 | 0.00 | 0.00 | 0.00 | 40 | 1018.3 |
| 20260509190009 | 77 | 356 | 4.3 | 10.4 | 0.00 | 0.00 | 0.00 | 42 | 1018.4 |
| 20260509184010 | 77 | 358 | 4.3 | 10.4 | 0.00 | 0.00 | 0.00 | 44 | 1018.4 |
| 20260509182009 | 77 | 321 | 3.5 | 8.7 | 0.00 | 0.00 | 0.00 | 42 | 1018.3 |
| 20260509181010 | 77 | 165 | 1.7 | 7.8 | 0.00 | 0.00 | 0.00 | 41 | 1018.3 |
| 20260509180009 | 77 | 7 | 2.6 | 7.8 | 0.00 | 0.00 | 0.00 | 42 | 1018.3 |
| 20260509175009 | 77 | 319 | 3.5 | 7.8 | 0.00 | 0.00 | 0.00 | 43 | 1018.3 |
| 20260509174013 | 77 | 350 | 0.9 | 6.1 | 0.00 | 0.00 | 0.00 | 41 | 1018.3 |
| 20260509173010 | 76 | 0 | 0.9 | 7.0 | 0.00 | 0.00 | 0.00 | 42 | 1018.2 |
| 20260509171010 | 77 | 320 | 0.0 | 4.3 | 0.00 | 0.00 | 0.00 | 39 | 1018.1 |
| 20260509170010 | 77 | 7 | 1.7 | 6.1 | 0.00 | 0.00 | 0.00 | 40 | 1018.1 |
| 20260509163009 | 72 | 106 | 0.0 | 0.0 | 0.00 | 0.00 | 0.00 | 44 | 1018.1 |
| 20260509161009 | 70 | 106 | 0.0 | 0.0 | 0.00 | 0.00 | 0.00 | 48 | 1018.2 |